Churt, United Kingdom
Current Conditions -  °F | °C
As of 2:50 PM on Wednesday 22 Oct 2014 (Local Time) from EGLF Reporting Station
Few Clouds Few Clouds  
Wind Chill: 55°   Ceiling: Unl
Heat Index: 55°   Visibility: 6mi
Dew Point: 43°   Wind: 12mph
Humidity: 63%   Direction: 290°WNW
Pressure: 30.27"   Gusts: NA
Location:  51.14°N, 0.78°W
Report Text: EGLF 221350Z 29010KT 250V320 9999 FEW033 13/06 Q1025
Loading
Personal Weather Stations






























Interactive Weather Map
Tropical Storm Tracking
New forecast layout! Learn more

10-Day Weather Forecast

Advertisements
Track Severe Weather on mobile